KF4ERV-4 Weather Reports


time (UTC)temp
C
wind
direction
speed
KPH
gust
KPH
rain 1hr
cm
rain 24hr
cm
rain mn
cm
humidity
%
barometer
mb
20260905205000 35 295 0.0 1.6 0.00 0.00 0.00 67 1011.9
20260905204838 35 299 0.0 0.0 0.00 0.00 0.00 67 1011.9
20260905204503 35 299 0.0 0.0 0.00 0.00 0.00 67 1011.9
20260905204005 35 293 0.0 1.6 0.00 0.00 0.00 67 1011.9
20260905203458 35 313 0.0 1.6 0.00 0.00 0.00 66 1011.9
20260905203002 35 282 0.0 1.6 0.00 0.00 0.00 66 1011.9
20260905202918 35 306 0.0 1.6 0.00 0.00 0.00 65 1011.9
20260905202504 35 306 0.0 1.6 0.00 0.00 0.00 65 1011.9
20260905202429 35 334 0.0 1.6 0.00 0.00 0.00 65 1011.9
20260905201938 35 321 0.0 3.2 0.00 0.00 0.00 65 1012.0
20260905201459 35 321 0.0 3.2 0.00 0.00 0.00 65 1012.0
20260905200957 35 300 0.0 3.2 0.00 0.00 0.00 65 1012.1
20260905200505 36 323 0.0 3.2 0.00 0.00 0.00 64 1012.1
20260905200018 35 339 0.0 0.0 0.00 0.00 0.00 64 1013.0
20260905195500 35 297 0.0 0.0 0.00 0.00 0.00 65 1012.9
20260905195002 35 245 0.0 0.0 0.00 0.00 0.00 65 1012.9
20260905194548 35 276 0.0 1.6 0.00 0.00 0.00 64 1012.9
20260905193958 36 303 0.0 1.6 0.00 0.00 0.00 63 1012.9
20260905193608 36 286 0.0 1.6 0.00 0.00 0.00 64 1012.9
20260905193501 36 286 0.0 1.6 0.00 0.00 0.00 64 1012.9
20260905193117 35 306 0.0 3.2 0.00 0.00 0.00 63 1013.0
20260905193004 35 306 0.0 3.2 0.00 0.00 0.00 63 1013.0
20260905192628 35 276 0.0 3.2 0.00 0.00 0.00 64 1012.9
20260905192507 35 276 0.0 3.2 0.00 0.00 0.00 64 1012.9
20260905192138 35 270 0.0 4.8 0.00 0.00 0.00 64 1012.9
20260905191958 35 270 0.0 4.8 0.00 0.00 0.00 64 1012.9
20260905191648 35 309 0.0 4.8 0.00 0.00 0.00 65 1013.0
20260905191502 35 309 0.0 4.8 0.00 0.00 0.00 65 1013.0
20260905191201 34 228 0.0 4.8 0.00 0.00 0.00 66 1012.9
20260905191005 34 228 0.0 4.8 0.00 0.00 0.00 66 1012.9
20260905190456 34 187 0.0 4.8 0.00 0.00 0.00 67 1013.2
20260905190000 34 201 0.0 3.2 0.00 0.00 0.00 65 1013.8
20260905185728 34 103 0.0 0.0 0.00 0.00 0.00 65 1013.9
20260905185502 34 103 0.0 0.0 0.00 0.00 0.00 65 1013.9
20260905185238 34 226 0.0 0.0 0.00 0.00 0.00 65 1013.9
20260905185005 34 226 0.0 0.0 0.00 0.00 0.00 65 1013.9
20260905184747 34 200 0.0 0.0 0.00 0.00 0.00 65 1014.0
20260905184258 35 244 0.0 0.0 0.00 0.00 0.00 65 1013.9
20260905184000 35 244 0.0 0.0 0.00 0.00 0.00 65 1013.9
20260905183809 35 298 0.0 0.0 0.00 0.00 0.00 64 1014.0
20260905183504 35 298 0.0 0.0 0.00 0.00 0.00 64 1014.0
20260905183328 35 248 0.0 0.0 0.00 0.00 0.00 64 1013.9
20260905183007 35 248 0.0 0.0 0.00 0.00 0.00 64 1013.9
20260905182458 35 274 0.0 0.0 0.00 0.00 0.00 63 1014.0
20260905182001 35 270 0.0 0.0 0.00 0.00 0.00 63 1014.0
20260905181848 34 272 0.0 0.0 0.00 0.00 0.00 64 1013.9
20260905181505 34 272 0.0 0.0 0.00 0.00 0.00 64 1013.9
20260905180956 34 242 0.0 0.0 0.00 0.00 0.00 64 1014.1
20260905180501 33 294 0.0 1.6 0.00 0.00 0.00 64 1014.0
20260905180419 33 295 0.0 1.6 0.00 0.00 0.00 64 1014.0
20260905180003 33 295 0.0 1.6 0.00 0.00 0.00 64 1014.0
20260905175505 33 87 0.0 0.0 0.00 0.00 0.00 64 1013.9
20260905174957 33 273 0.0 0.0 0.00 0.00 0.00 63 1013.9
20260905174501 33 256 0.0 0.0 0.00 0.00 0.00 63 1014.0
20260905174003 33 317 0.0 0.0 0.00 0.00 0.00 64 1013.9
20260905173507 32 217 0.0 0.0 0.00 0.00 0.00 64 1013.9
20260905172958 32 219 0.0 0.0 0.00 0.00 0.00 63 1014.0
20260905172501 32 187 0.0 3.2 0.00 0.00 0.00 62 1014.3
20260905172005 32 221 0.0 3.2 0.00 0.00 0.00 62 1014.1
20260905171557 32 342 0.0 0.0 0.00 0.00 0.00 62 1014.2
20260905171456 32 342 0.0 0.0 0.00 0.00 0.00 62 1014.2
20260905171000 31 99 0.0 0.0 0.00 0.00 0.00 61 1014.1
20260905170617 31 268 0.0 0.0 0.00 0.00 0.00 61 1014.8
20260905170502 31 268 0.0 0.0 0.00 0.00 0.00 61 1014.8
20260905170324 31 238 0.0 0.0 0.00 0.00 0.00 61 1014.9
20260905170128 31 238 0.0 0.0 0.00 0.00 0.00 61 1014.9
20260905170006 31 238 0.0 0.0 0.00 0.00 0.00 61 1014.9
20260905165638 31 250 0.0 0.0 0.00 0.00 0.00 60 1015.0
20260905165457 31 250 0.0 0.0 0.00 0.00 0.00 60 1015.0
20260905165148 31 308 0.0 0.0 0.00 0.00 0.00 60 1014.9
20260905165000 31 308 0.0 0.0 0.00 0.00 0.00 60 1014.9
20260905164700 30 276 0.0 0.0 0.00 0.00 0.00 59 1014.9
20260905164006 30 208 0.0 0.0 0.00 0.00 0.00 58 1014.9
20260905163720 30 274 0.0 0.0 0.00 0.00 0.00 58 1014.9
20260905163458 30 274 0.0 0.0 0.00 0.00 0.00 58 1014.9
20260905163001 30 86 0.0 0.0 0.00 0.00 0.00 57 1015.1
20260905162739 30 196 0.0 0.0 0.00 0.00 0.00 56 1015.7
20260905162505 30 196 0.0 0.0 0.00 0.00 0.00 56 1015.7
20260905162249 30 275 0.0 0.0 0.00 0.00 0.00 55 1015.6
20260905161958 30 275 0.0 0.0 0.00 0.00 0.00 55 1015.6
20260905161758 29 207 0.0 0.0 0.00 0.00 0.00 55 1014.9
20260905161501 29 207 0.0 0.0 0.00 0.00 0.00 55 1014.9
20260905161310 29 94 0.0 0.0 0.00 0.00 0.00 55 1014.9
20260905161003 29 94 0.0 0.0 0.00 0.00 0.00 55 1014.9
20260905160820 29 99 0.0 0.0 0.00 0.00 0.00 54 1014.9
20260905160506 29 99 0.0 0.0 0.00 0.00 0.00 54 1014.9
20260905160328 29 84 0.0 0.0 0.00 0.00 0.00 53 1014.9
20260905155958 29 84 0.0 0.0 0.00 0.00 0.00 53 1014.9
20260905155837 29 125 0.0 0.0 0.00 0.00 0.00 51 1015.1
20260905155501 29 125 0.0 0.0 0.00 0.00 0.00 51 1015.1
20260905155350 29 197 0.0 0.0 0.00 0.00 0.00 49 1015.6
20260905154858 28 220 0.0 0.0 0.00 0.00 0.00 49 1015.7
20260905154506 28 220 0.0 0.0 0.00 0.00 0.00 49 1015.7
20260905153958 28 289 0.0 0.0 0.00 0.00 0.00 48 1015.9
20260905153928 28 197 0.0 0.0 0.00 0.00 0.00 48 1016.0
20260905153501 28 197 0.0 0.0 0.00 0.00 0.00 48 1016.0
20260905153005 28 211 0.0 0.0 0.00 0.00 0.00 47 1016.0
20260905151957 28 238 0.0 0.0 0.00 0.00 0.00 47 1016.0
20260905151502 28 98 0.0 0.0 0.00 0.00 0.00 45 1015.9
20260905151006 28 198 0.0 0.0 0.00 0.00 0.00 45 1016.0
20260905150458 28 108 0.0 0.0 0.00 0.00 0.00 43 1015.9
20260905150001 28 97 0.0 0.0 0.00 0.00 0.00 41 1016.0
20260905145503 28 132 0.0 0.0 0.00 0.00 0.00 40 1015.9
20260905145006 28 83 0.0 0.0 0.00 0.00 0.00 38 1015.9
20260905144607 28 99 0.0 0.0 0.00 0.00 0.00 37 1016.0
20260905144117 28 117 0.0 0.0 0.00 0.00 0.00 35 1016.1
20260905144002 28 117 0.0 0.0 0.00 0.00 0.00 35 1016.1
20260905143627 27 335 0.0 0.0 0.00 0.00 0.00 33 1015.9
20260905143504 27 335 0.0 0.0 0.00 0.00 0.00 33 1015.9
20260905143137 27 90 0.0 0.0 0.00 0.00 0.00 33 1016.1
20260905142957 27 90 0.0 0.0 0.00 0.00 0.00 33 1016.1
20260905142657 27 87 0.0 0.0 0.00 0.00 0.00 31 1015.9
20260905142459 27 87 0.0 0.0 0.00 0.00 0.00 31 1015.9
20260905142159 26 112 0.0 0.0 0.00 0.00 0.00 29 1015.9
20260905142015 26 112 0.0 0.0 0.00 0.00 0.00 29 1015.9
20260905141505 26 36 0.0 0.0 0.00 0.00 0.00 28 1015.9
20260905141217 26 55 0.0 0.0 0.00 0.00 0.00 26 1015.9
20260905140957 26 55 0.0 0.0 0.00 0.00 0.00 26 1015.9
20260905140500 26 53 0.0 0.0 0.00 0.00 0.00 24 1015.9
20260905140006 26 30 0.0 0.0 0.00 0.00 0.00 21 1015.9
20260905135748 25 46 0.0 0.0 0.00 0.00 0.00 19 1015.9
20260905134959 25 85 0.0 0.0 0.00 0.00 0.00 15 1016.1
20260905134809 25 32 0.0 0.0 0.00 0.00 0.00 14 1016.8
20260905134507 25 32 0.0 0.0 0.00 0.00 0.00 14 1016.8
20260905134318 25 53 0.0 0.0 0.00 0.00 0.00 12 1016.3
20260905134004 25 53 0.0 0.0 0.00 0.00 0.00 12 1016.3
20260905133501 25 57 0.0 0.0 0.00 0.00 0.00 7 1016.4
20260905133343 25 56 0.0 0.0 0.00 0.00 0.00 5 1016.2
20260905132959 25 56 0.0 0.0 0.00 0.00 0.00 5 1016.2
20260905132905 25 47 0.0 0.0 0.00 0.00 0.00 7 1016.9
20260905132005 25 25 0.0 0.0 0.00 0.00 0.00 7 1016.9
20260905131911 25 340 0.0 0.0 0.00 0.00 0.00 1016.9
20260905131004 25 4 0.0 0.0 0.00 0.00 0.00 45 1016.9
20260905130935 25 266 0.0 1.6 0.00 0.00 0.00 54 1017.0
20260905130501 25 266 0.0 1.6 0.00 0.00 0.00 54 1017.0
20260905130437 25 279 0.0 1.6 0.00 0.00 0.00 52 1016.9
20260905130007 25 279 0.0 1.6 0.00 0.00 0.00 52 1016.9
20260905125458 25 28 0.0 0.0 0.00 0.00 0.00 55 1016.9
20260905125007 25 45 0.0 0.0 0.00 0.00 0.00 24 1016.9
20260905124505 26 306 0.0 0.0 0.00 0.00 0.00 9 1016.8
20260905123958 26 349 0.0 0.0 0.00 0.00 0.00 14 1016.5
20260905123538 26 349 0.0 0.0 0.00 0.00 0.00 14 1015.0
20260905123003 26 90 0.0 0.0 0.00 0.00 0.00 11 1014.9
20260905122503 26 57 0.0 0.0 0.00 0.00 0.00 8 1015.1
20260905122107 26 66 0.0 0.0 0.00 0.00 0.00 9 1015.1
20260905120506 26 290 0.0 0.0 0.00 0.00 0.00 6 1015.7
20260905120147 26 81 0.0 0.0 0.00 0.00 0.00 10 1015.2
20260905115958 26 81 0.0 0.0 0.00 0.00 0.00 10 1015.2
20260905115707 26 41 0.0 0.0 0.00 0.00 0.00 64 1015.6
20260905115502 26 41 0.0 0.0 0.00 0.00 0.00 64 1015.6
20260905115004 26 348 0.0 0.0 0.00 0.00 0.00 62 1015.6
20260905113957 26 283 0.0 0.0 0.00 0.00 0.00 60 1014.9
20260905113813 26 334 0.0 0.0 0.00 0.00 0.00 60 1014.9
20260905113742 26 334 0.0 0.0 0.00 0.00 0.00 60 1014.9
20260905113254 26 14 0.0 0.0 0.00 0.00 0.00 59 1014.9
20260905113005 26 14 0.0 0.0 0.00 0.00 0.00 59 1014.9
20260905112307 26 16 0.0 0.0 0.00 0.00 0.00 54 1014.9
20260905111959 26 16 0.0 0.0 0.00 0.00 0.00 54 1014.9
20260905111820 26 15 0.0 0.0 0.00 0.00 0.00 49 1014.9
20260905111502 26 15 0.0 0.0 0.00 0.00 0.00 49 1014.9
20260905111329 26 358 0.0 0.0 0.00 0.00 0.00 43 1014.9
20260905111008 26 358 0.0 0.0 0.00 0.00 0.00 43 1014.9
20260905110839 26 34 0.0 0.0 0.00 0.00 0.00 41 1014.9
20260905110500 26 34 0.0 0.0 0.00 0.00 0.00 41 1014.9
20260905110001 26 11 0.0 0.0 0.00 0.00 0.00 41 1014.6
20260905105903 26 19 0.0 0.0 0.00 0.00 0.00 41 1014.8
20260905105505 26 19 0.0 0.0 0.00 0.00 0.00 41 1014.8
20260905105409 26 347 0.0 0.0 0.00 0.00 0.00 42 1014.1
20260905104956 26 347 0.0 0.0 0.00 0.00 0.00 42 1014.1
20260905104917 26 295 0.0 0.0 0.00 0.00 0.00 52 1014.0
20260905103943 26 292 0.0 0.0 0.00 0.00 0.00 54 1014.0
20260905103507 26 292 0.0 0.0 0.00 0.00 0.00 54 1014.0
20260905102958 26 289 0.0 0.0 0.00 0.00 0.00 54 1014.0
20260905102505 26 294 0.0 0.0 0.00 0.00 0.00 51 1014.0
20260905102005 26 277 0.0 0.0 0.00 0.00 0.00 54 1013.9
20260905101507 26 317 0.0 0.0 0.00 0.00 0.00 58 1014.1
20260905100958 26 297 0.0 0.0 0.00 0.00 0.00 62 1013.9
20260905100500 26 292 0.0 0.0 0.00 0.00 0.00 50 1014.0
20260905100004 26 292 0.0 0.0 0.00 0.00 0.00 7 1013.9
20260905095607 26 292 0.0 0.0 0.00 0.00 0.00 10 1014.0
20260905095457 26 292 0.0 0.0 0.00 0.00 0.00 10 1014.0
20260905094137 27 292 0.0 0.0 0.00 0.00 0.00 12 1014.0
20260905094004 27 292 0.0 0.0 0.00 0.00 0.00 12 1014.0
20260905093457 27 292 0.0 0.0 0.00 0.00 0.00 13 1014.0
20260905093156 27 274 0.0 0.0 0.00 0.00 0.00 14 1013.9
20260905092959 27 274 0.0 0.0 0.00 0.00 0.00 14 1013.9
20260905092708 27 256 0.0 0.0 0.00 0.00 0.00 15 1013.9
20260905092007 27 304 0.0 0.0 0.00 0.00 0.00 16 1013.9
20260905091727 27 315 0.0 0.0 0.00 0.00 0.00 17 1013.9
20260905091459 27 315 0.0 0.0 0.00 0.00 0.00 17 1013.9
20260905091000 27 315 0.0 0.0 0.00 0.00 0.00 18 1014.0
20260905090503 27 306 0.0 0.0 0.00 0.00 0.00 17 1013.9
20260905085956 27 263 0.0 0.0 0.00 0.00 0.00 16 1014.0
20260905085809 27 301 0.0 0.0 0.00 0.00 0.00 15 1013.9
20260905085459 27 301 0.0 0.0 0.00 0.00 0.00 15 1013.9
20260905085316 27 315 0.0 0.0 0.00 0.00 0.00 13 1013.9
20260905085002 27 315 0.0 0.0 0.00 0.00 0.00 13 1013.9
20260905084505 27 312 0.0 0.0 0.00 0.00 0.00 10 1013.9
20260905084339 27 305 0.0 0.0 0.00 0.00 0.00 7 1013.9
20260905083958 27 305 0.0 0.0 0.00 0.00 0.00 7 1013.9
20260905083845 27 318 0.0 0.0 0.00 0.00 0.00 1013.9
20260905083505 27 318 0.0 0.0 0.00 0.00 0.00 1013.9
20260905083400 27 300 0.0 0.0 0.00 0.00 0.00 4 1013.9
20260905083001 27 300 0.0 0.0 0.00 0.00 0.00 4 1013.9
20260905082906 27 259 0.0 0.0 0.00 0.00 0.00 6 1013.0
20260905082506 27 259 0.0 0.0 0.00 0.00 0.00 6 1013.0
20260905082416 27 237 0.0 0.0 0.00 0.00 0.00 6 1013.1
20260905081957 27 237 0.0 0.0 0.00 0.00 0.00 6 1013.1
20260905081928 27 216 0.0 0.0 0.00 0.00 0.00 7 1013.9
20260905081459 27 216 0.0 0.0 0.00 0.00 0.00 7 1013.9
20260905081002 28 195 0.0 0.0 0.00 0.00 0.00 7 1013.1
20260905080500 27 254 0.0 0.0 0.00 0.00 0.00 6 1013.3
20260905075958 28 280 0.0 0.0 0.00 0.00 0.00 6 1013.3
20260905075501 28 321 0.0 0.0 0.00 0.00 0.00 5 1013.9
20260905075003 28 297 0.0 0.0 0.00 0.00 0.00 6 1014.0
20260905074459 27 296 0.0 0.0 0.00 0.00 0.00 1013.9
20260905074000 27 302 0.0 0.0 0.00 0.00 0.00 25 1013.9
20260905073604 27 297 0.0 0.0 0.00 0.00 0.00 60 1013.8
20260905073105 27 292 0.0 0.0 0.00 0.00 0.00 56 1013.9
20260905073005 27 292 0.0 0.0 0.00 0.00 0.00 56 1013.9
20260905072456 27 292 0.0 0.0 0.00 0.00 0.00 57 1013.9
20260905072126 27 292 0.0 0.0 0.00 0.00 0.00 58 1014.0
20260905072000 27 292 0.0 0.0 0.00 0.00 0.00 58 1014.0
20260905071637 27 292 0.0 0.0 0.00 0.00 0.00 59 1013.9
20260905071502 27 292 0.0 0.0 0.00 0.00 0.00 59 1013.9
20260905071220 27 292 0.0 0.0 0.00 0.00 0.00 10 1014.0
20260905071148 27 292 0.0 0.0 0.00 0.00 0.00 10 1014.0
20260905070956 27 292 0.0 0.0 0.00 0.00 0.00 10 1014.0
20260905070707 27 292 0.0 0.0 0.00 0.00 0.00 6 1013.9
20260905070500 27 292 0.0 0.0 0.00 0.00 0.00 6 1013.9
20260905070002 27 292 0.0 0.0 0.00 0.00 0.00 6 1013.9
20260905065506 27 292 0.0 0.0 0.00 0.00 0.00 1013.9
20260905065225 27 292 0.0 0.0 0.00 0.00 0.00 4 1013.9
20260905064956 27 292 0.0 0.0 0.00 0.00 0.00 4 1013.9
20260905064501 27 292 0.0 0.0 0.00 0.00 0.00 10 1013.9
20260905064247 27 292 0.0 0.0 0.00 0.00 0.00 10 1014.0
20260905064004 27 292 0.0 0.0 0.00 0.00 0.00 10 1014.0
20260905063800 27 292 0.0 0.0 0.00 0.00 0.00 7 1013.9
20260905063505 27 292 0.0 0.0 0.00 0.00 0.00 7 1013.9
20260905063307 27 292 0.0 0.0 0.00 0.00 0.00 12 1013.9
20260905062957 27 292 0.0 0.0 0.00 0.00 0.00 12 1013.9
20260905062817 27 292 0.0 0.0 0.00 0.00 0.00 12 1014.1
20260905062500 27 292 0.0 0.0 0.00 0.00 0.00 12 1014.1
20260905062329 27 292 0.0 0.0 0.00 0.00 0.00 15 1014.0
20260905062003 27 292 0.0 0.0 0.00 0.00 0.00 15 1014.0
20260905061837 27 292 0.0 0.0 0.00 0.00 0.00 19 1014.4
20260905061346 27 292 0.0 0.0 0.00 0.00 0.00 20 1014.9
20260905060958 27 292 0.0 0.0 0.00 0.00 0.00 20 1014.9
20260905060857 27 292 0.0 0.0 0.00 0.00 0.00 24 1014.9
20260905060407 27 292 0.0 0.0 0.00 0.00 0.00 24 1014.9
20260905060006 27 292 0.0 0.0 0.00 0.00 0.00 24 1014.9
20260905055917 28 292 0.0 0.0 0.00 0.00 0.00 23 1014.9
20260905055506 28 292 0.0 0.0 0.00 0.00 0.00 23 1014.9
20260905055431 28 292 0.0 0.0 0.00 0.00 0.00 24 1015.0
20260905053959 28 292 0.0 0.0 0.00 0.00 0.00 27 1014.9
20260905053457 28 292 0.0 0.0 0.00 0.00 0.00 30 1014.9
20260905053016 28 290 0.0 0.0 0.00 0.00 0.00 32 1015.0
20260905052508 28 292 0.0 0.0 0.00 0.00 0.00 34 1014.9
20260905051955 28 291 0.0 0.0 0.00 0.00 0.00 34 1015.0
20260905051459 28 292 0.0 0.0 0.00 0.00 0.00 36 1014.9
20260905051004 28 292 0.0 0.0 0.00 0.00 0.00 38 1014.9
20260905050606 28 300 0.0 0.0 0.00 0.00 0.00 39 1014.9
20260905045957 28 315 0.0 0.0 0.00 0.00 0.00 39 1015.0
20260905045628 28 315 0.0 0.0 0.00 0.00 0.00 40 1014.9
20260905045458 28 315 0.0 0.0 0.00 0.00 0.00 40 1014.9
20260905045002 28 315 0.0 0.0 0.00 0.00 0.00 43 1014.9
20260905044648 28 315 0.0 0.0 0.00 0.00 0.00 44 1014.9
20260905044505 28 315 0.0 0.0 0.00 0.00 0.00 44 1014.9
20260905044200 28 317 0.0 0.0 0.00 0.00 0.00 46 1014.9
20260905043957 28 317 0.0 0.0 0.00 0.00 0.00 46 1014.9
20260905043710 28 302 0.0 0.0 0.00 0.00 0.00 48 1015.0
20260905043502 28 302 0.0 0.0 0.00 0.00 0.00 48 1015.0
20260905043003 28 292 0.0 0.0 0.00 0.00 0.00 51 1014.9
20260905042728 28 292 0.0 0.0 0.00 0.00 0.00 53 1015.1
20260905042457 28 292 0.0 0.0 0.00 0.00 0.00 53 1015.1
20260905042241 28 292 0.0 0.0 0.00 0.00 0.00 55 1015.0
20260905041956 28 292 0.0 0.0 0.00 0.00 0.00 55 1015.0
20260905041752 28 292 0.0 0.0 0.00 0.00 0.00 56 1014.9
20260905041501 28 292 0.0 0.0 0.00 0.00 0.00 56 1014.9
20260905041256 28 292 0.0 0.0 0.00 0.00 0.00 56 1014.9
20260905041004 28 292 0.0 0.0 0.00 0.00 0.00 56 1014.9
20260905040809 28 292 0.0 0.0 0.00 0.00 0.00 57 1014.9
20260905040457 28 292 0.0 0.0 0.00 0.00 0.00 57 1014.9
20260905040316 28 292 0.0 0.0 0.00 0.00 0.00 59 1015.0
20260905040000 28 292 0.0 0.0 0.00 0.00 0.00 59 1015.0
20260905035829 28 292 0.0 0.0 0.00 0.00 0.00 60 1014.9
20260905035502 28 292 0.0 0.0 0.00 0.00 0.00 60 1014.9
20260905035337 28 292 0.0 0.0 0.00 0.00 0.00 60 1014.9
20260905035005 28 292 0.0 0.0 0.00 0.00 0.00 60 1014.9
20260905034846 28 292 0.0 0.0 0.00 0.00 0.00 60 1014.9
20260905034400 28 292 0.0 0.0 0.00 0.00 0.00 61 1015.0
20260905034000 28 292 0.0 0.0 0.00 0.00 0.00 61 1015.0
20260905033908 28 292 0.0 0.0 0.00 0.00 0.00 63 1014.9
20260905033458 28 292 0.0 0.0 0.00 0.00 0.00 64 1015.1
20260905033425 28 292 0.0 0.0 0.00 0.00 0.00 64 1015.1
20260905032955 28 292 0.0 0.0 0.00 0.00 0.00 64 1015.1
20260905032458 29 292 0.0 0.0 0.00 0.00 0.00 66 1015.0
20260905032438 29 292 0.0 0.0 0.00 0.00 0.00 66 1014.9
20260905032001 29 292 0.0 0.0 0.00 0.00 0.00 66 1014.9
20260905031459 29 292 0.0 0.0 0.00 0.00 0.00 67 1014.9
20260905030956 29 312 0.0 0.0 0.00 0.00 0.00 68 1015.0
20260905030459 29 315 0.0 0.0 0.00 0.00 0.00 69 1014.8
20260905030002 29 294 0.0 0.0 0.00 0.00 0.00 70 1014.9
20260905025507 29 292 0.0 0.0 0.00 0.00 0.00 70 1014.9
20260905025048 30 301 0.0 0.0 0.00 0.00 0.00 71 1014.9
20260905024501 30 303 0.0 0.0 0.00 0.00 0.00 72 1015.1
20260905024107 30 292 0.0 0.0 0.00 0.00 0.00 72 1014.9
20260905024003 30 292 0.0 0.0 0.00 0.00 0.00 72 1014.9
20260905023616 30 292 0.0 0.0 0.00 0.00 0.00 73 1015.2
20260905023125 30 311 0.0 0.0 0.00 0.00 0.00 74 1015.0
20260905022958 30 311 0.0 0.0 0.00 0.00 0.00 74 1015.0
20260905022636 30 315 0.0 0.0 0.00 0.00 0.00 74 1015.0
20260905022506 30 315 0.0 0.0 0.00 0.00 0.00 74 1015.0
20260905022004 30 315 0.0 0.0 0.00 0.00 0.00 75 1015.0
20260905021659 30 315 0.0 0.0 0.00 0.00 0.00 76 1014.9
20260905020958 30 315 0.0 0.0 0.00 0.00 0.00 77 1014.9
20260905020722 30 315 0.0 0.0 0.00 0.00 0.00 77 1014.9
20260905020502 30 315 0.0 0.0 0.00 0.00 0.00 77 1014.9
20260905015739 30 315 0.0 0.0 0.00 0.00 0.00 78 1014.9
20260905014756 30 296 0.0 0.0 0.00 0.00 0.00 79 1014.5
20260905014504 30 296 0.0 0.0 0.00 0.00 0.00 79 1014.5
20260905014306 30 292 0.0 0.0 0.00 0.00 0.00 79 1014.1
20260905013955 30 292 0.0 0.0 0.00 0.00 0.00 79 1014.1
20260905013831 31 292 0.0 0.0 0.00 0.00 0.00 80 1013.9
20260905013458 31 292 0.0 0.0 0.00 0.00 0.00 80 1013.9
20260905013332 31 292 0.0 0.0 0.00 0.00 0.00 80 1014.0
20260905013001 31 292 0.0 0.0 0.00 0.00 0.00 80 1014.0
20260905012836 31 292 0.0 0.0 0.00 0.00 0.00 80 1013.9
20260905012503 31 292 0.0 0.0 0.00 0.00 0.00 80 1013.9
20260905012346 31 292 0.0 0.0 0.00 0.00 0.00 80 1013.9
20260905011858 31 292 0.0 0.0 0.00 0.00 0.00 80 1013.9
20260905011459 31 292 0.0 0.0 0.00 0.00 0.00 80 1013.9
20260905011408 31 292 0.0 0.0 0.00 0.00 0.00 80 1013.9
20260905010916 31 292 0.0 0.0 0.00 0.00 0.00 79 1013.9
20260905010504 31 292 0.0 0.0 0.00 0.00 0.00 79 1013.9
20260905005957 31 292 0.0 0.0 0.00 0.00 0.00 79 1013.9
20260905005500 32 292 0.0 0.0 0.00 0.00 0.00 79 1014.0
20260905004957 32 292 0.0 0.0 0.00 0.00 0.00 79 1013.9
20260905004507 32 292 0.0 0.0 0.00 0.00 0.00 79 1014.1
20260905003957 32 292 0.0 0.0 0.00 0.00 0.00 78 1013.9
20260905003500 32 292 0.0 0.0 0.00 0.00 0.00 78 1013.9
20260905003036 32 292 0.0 0.0 0.00 0.00 0.00 78 1013.9
20260905002455 32 292 0.0 0.0 0.00 0.00 0.00 77 1013.9
20260905001958 33 292 0.0 0.0 0.00 0.00 0.00 77 1013.9
20260905001610 33 291 0.0 0.0 0.00 0.00 0.00 77 1013.9
20260905001501 33 291 0.0 0.0 0.00 0.00 0.00 77 1013.9
20260905001117 33 312 0.0 0.0 0.00 0.00 0.00 76 1013.9
20260905001005 33 312 0.0 0.0 0.00 0.00 0.00 76 1013.9
20260905000626 33 313 0.0 0.0 0.00 0.00 0.00 76 1014.0
20260905000456 33 313 0.0 0.0 0.00 0.00 0.00 76 1014.0
20260905000139 33 292 0.0 0.0 0.00 0.00 0.00 76 1014.1
20260905000003 33 292 0.0 0.0 0.00 0.00 0.00 76 1014.1
20260904235646 33 292 0.0 0.0 0.00 0.00 0.00 74 1014.0
20260904235505 33 292 0.0 0.0 0.00 0.00 0.00 74 1014.0
20260904235158 33 292 0.0 0.0 0.00 0.00 0.00 73 1014.0
20260904234955 33 292 0.0 0.0 0.00 0.00 0.00 73 1014.0
20260904234706 33 292 0.0 0.0 0.00 0.00 0.00 72 1013.9
20260904234215 33 285 0.0 1.6 0.00 0.00 0.00 72 1013.9
20260904234001 33 285 0.0 1.6 0.00 0.00 0.00 72 1013.9
20260904233726 33 277 0.0 1.6 0.00 0.00 0.00 72 1013.9
20260904233236 34 279 0.0 0.0 0.00 0.00 0.00 72 1013.9
20260904233000 34 279 0.0 0.0 0.00 0.00 0.00 72 1013.9
20260904232748 34 301 0.0 0.0 0.00 0.00 0.00 71 1013.9
20260904232500 34 301 0.0 0.0 0.00 0.00 0.00 71 1013.9
20260904232001 34 298 0.0 0.0 0.00 0.00 0.00 71 1014.0
20260904231807 35 289 0.0 0.0 0.00 0.00 0.00 69 1013.9
20260904231504 35 289 0.0 0.0 0.00 0.00 0.00 69 1013.9
20260904231315 35 284 0.0 0.0 0.00 0.00 0.00 69 1013.9
20260904230956 35 284 0.0 0.0 0.00 0.00 0.00 69 1013.9
20260904230459 35 270 0.0 0.0 0.00 0.00 0.00 69 1014.0
20260904230339 35 295 0.0 0.0 0.00 0.00 0.00 67 1014.0
20260904230003 35 295 0.0 0.0 0.00 0.00 0.00 67 1014.0
20260904225845 35 286 0.0 0.0 0.00 0.00 0.00 68 1014.0
20260904225407 35 280 0.0 0.0 0.00 0.00 0.00 67 1013.9
20260904224957 35 280 0.0 0.0 0.00 0.00 0.00 67 1013.9
20260904224417 35 284 0.0 0.0 0.00 0.00 0.00 68 1013.9
20260904224004 35 284 0.0 0.0 0.00 0.00 0.00 68 1013.9
20260904223927 35 276 0.0 0.0 0.00 0.00 0.00 67 1013.9
20260904222958 36 297 0.0 0.0 0.00 0.00 0.00 67 1013.9
20260904222501 36 302 0.0 0.0 0.00 0.00 0.00 67 1013.9
20260904222006 36 331 0.0 0.0 0.00 0.00 0.00 67 1014.0
20260904221457 36 313 0.0 0.0 0.00 0.00 0.00 67 1013.9
20260904221000 36 319 0.0 1.6 0.00 0.00 0.00 66 1014.0
20260904220503 36 309 0.0 1.6 0.00 0.00 0.00 65 1013.9
20260904215954 36 307 0.0 0.0 0.00 0.00 0.00 66 1014.1
20260904215555 36 303 0.0 0.0 0.00 0.00 0.00 66 1013.9
20260904215105 36 276 0.0 0.0 0.00 0.00 0.00 67 1013.9
20260904215000 36 276 0.0 0.0 0.00 0.00 0.00 67 1013.9
20260904214617 36 290 0.0 0.0 0.00 0.00 0.00 66 1013.9
20260904214126 36 285 0.0 0.0 0.00 0.00 0.00 66 1013.9
20260904213955 36 285 0.0 0.0 0.00 0.00 0.00 66 1013.9
20260904213458 36 316 0.0 0.0 0.00 0.00 0.00 66 1014.0
20260904213146 35 307 0.0 0.0 0.00 0.00 0.00 68 1013.9
20260904213004 35 307 0.0 0.0 0.00 0.00 0.00 68 1013.9
20260904212703 35 275 0.0 0.0 0.00 0.00 0.00 67 1013.9
20260904212505 35 275 0.0 0.0 0.00 0.00 0.00 67 1013.9
20260904212206 36 307 0.0 0.0 0.00 0.00 0.00 66 1014.0
20260904211957 36 307 0.0 0.0 0.00 0.00 0.00 66 1014.0
20260904211720 36 310 0.0 0.0 0.00 0.00 0.00 66 1014.0
20260904211002 36 316 0.0 0.0 0.00 0.00 0.00 66 1013.9
20260904210245 37 310 0.0 1.6 0.00 0.00 0.00 63 1013.9
20260904205958 37 310 0.0 1.6 0.00 0.00 0.00 63 1013.9
20260904205800 37 276 0.0 0.0 0.00 0.00 0.00 63 1013.9
20260904205501 37 276 0.0 0.0 0.00 0.00 0.00 63 1013.9